Regional Weather Roundup
Issued by NWS

Home | Current Version | Previous Version | Text Only | Print | Product List | Glossary Off
Versions: 1 2 3 4 5 6 7 8 9 10 11 12 13 14 15 16 17 18 19 20 21 22 23 24 25 26 27 28 29 30 31 32 33 34 35 36 37 38 39 40 41 42 43 44 45 46 47 48 49 50

000
ASUS45 KBOU 250710
RWRCO

WEATHER ROUNDUP FOR COLORADO
NATIONAL WEATHER SERVICE DENVER/BOULDER CO
1200 AM MST SUN FEB 25 2018

NOTE: "FAIR" INDICATES FEW OR NO CLOUDS BELOW 12000 FEET WITH NO
SIGNIFICANT WEATHER AND/OR OBSTRUCTIONS TO VISIBILITY.

COZ001>005-013-030-031-250800-
...NORTHWEST COLORADO...

CITY           SKY/WX    TMP DP  RH WIND       PRES   REMARKS
CRAIG          CLOUDY    12   7  80 CALM      29.91F
HAYDEN         FLURRIES  14  11  87 CALM      29.91S
MEEKER         FAIR      17   9  70 MISG      29.90F
RANGELY        FAIR      18  13  81 SW3       29.95R
RABBIT EARS PA LGT SNOW N/A N/A N/A W8G16     29.71S VSB 3/4
STEAMBOAT SPGS CLOUDY    14  11  88 E5        29.88S WCI   6
WALDEN         MOCLDY     9   3  78 S10G18    29.79F WCI  -6
$$

COZ006>008-011-250800-
...WEST CENTRAL VALLEYS...

CITY           SKY/WX    TMP DP  RH WIND       PRES   REMARKS
GRAND JUNCTION FAIR      26  22  84 E7        29.95F WCI  18
MONTROSE       MOCLDY    26  14  60 CALM      29.97R
EAGLE          FLURRIES  19  15  84 CALM      29.93S
RIFLE          FAIR      21  14  74 S5        29.95S WCI  15
DELTA          FAIR      28  21  77 E7        29.97R WCI  20
NUCLA          CLOUDY    27  18  69 CALM      30.00S
$$

COZ017>023-064>068-250800-
...SOUTHWEST COLORADO...

CITY           SKY/WX    TMP DP  RH WIND       PRES   REMARKS
DURANGO        CLOUDY    24  16  71 NE5       29.94F WCI  18
CORTEZ         CLOUDY    26  13  57 CALM      29.96F
PAGOSA SPRINGS LGT SNOW  18  16  89 CALM      29.94S
TELLURIDE      LGT SNOW  15  12  87 W6        29.88S WCI   6
WOLF CREEK PAS   N/A      1   0  92 S18G28    29.81S WCI -19
$$

COZ009-010-012-014-032>034-037-058>063-250800-
...CENTRAL COLORADO...

CITY           SKY/WX    TMP DP  RH WIND       PRES   REMARKS
ASPEN          FLURRIES  13   6  74 CALM      29.85S
BUENA VISTA    CLOUDY    19   6  57 W8        29.84S WCI   8
COPPER MTN     CLOUDY     5  -4  66 W15G30    29.67F HAZE    WCI -13
BERTHOUD PASS  CLOUDY    -6 -15  65 W33       29.60F HAZE    WCI -35
COTTONWOOD PAS LGT SNOW  18  10  73 S5        29.78S WCI  11
GUNNISON       LGT SNOW  16  13  88 CALM      29.88F FOG
GRANBY         CLOUDY    13   7  77 W8        29.82F WCI   1
KREMMLING      CLOUDY    21  10  63 W6        29.86S WCI  14
LEADVILLE      CLOUDY     5   0  79 NE5       29.75F WCI  -4
MONARCH PASS   CLOUDY     1  -4  78 SW28G35   29.81S WCI -23
SALIDA         CLOUDY    22   9  57 SW6       29.94S WCI  14
SUNLIGHT       LGT SNOW   3   1  92 SW8       29.80S WCI -10
WILKERSON PASS FAIR       1  -4  78 SW13G23   29.73R WCI -16
$$

COZ069>075-250800-
...SAN LUIS VALLEY/SANGRE DE CRISTO MOUNTAINS...

CITY           SKY/WX    TMP DP  RH WIND       PRES   REMARKS
ALAMOSA        FAIR      18   5  57 S9        29.88F WCI   7
DEL NORTE      CLOUDY    19   6  55 W9        29.87F WCI   9
LA VETA PASS   CLOUDY    12   1  62 MISG      29.90F
SAGUACHE       NOT AVBL
$$

COZ035-036-038>040-250800-
...NORTHERN COLORADO FRONT RANGE...

CITY           SKY/WX    TMP DP  RH WIND       PRES   REMARKS
DENVER INTL AP FAIR      15   6  67 S12       29.84S WCI   2
AURORA         PTCLDY    17   5  57 SE7       29.85R WCI   8
FRONT RANGE AP FAIR      20  10  63 S6        29.85S WCI  13
ERIE MUNI ARPT FAIR      28   2  31 SW7       29.90S WCI  21
BOULDER MUN AP FAIR      27   3  36 S3        29.83S
CENTENNIAL     FAIR      23   2  40 SW10      29.83S WCI  12
BROOMFIELD     NOT AVBL
FORT COLLINS   FAIR      23   4  44 SE13      29.84S WCI  11
LONGMONT       FAIR      24   4  41 SW7       29.86S WCI  16
$$

COZ041-046-047-076>085-087-088-250800-
...PIKES PEAK/PALMER DIVIDE AND SOUTHERN FOOTHILLS...

CITY           SKY/WX    TMP DP  RH WIND       PRES   REMARKS
COLO. SPRINGS  MOCLDY    23   3  42 S7        29.86R WCI  15
A. F. ACADEMY  FAIR      21  -1  38 S9        29.83R WCI  11
SCHRIEVER AFB  NOT AVBL
CHEYENNE MTN   FAIR      20   0  40 S8        29.78S WCI  11
ELLICOTT         N/A    N/A N/A N/A N5        29.85R
FALCON         FAIR      20   0  42 CALM      29.85R
FORT CARSON    FAIR      23   3  41 NW3       29.86R
LIMON          CLOUDY    15   9  76 W3        29.87R
MONUMENT HILL  FAIR      21   0  39 SW10G20   29.83R WCI  10
CANON CITY     CLEAR     30   3  31 W7        29.86R WCI  23
WALSENBURG     NOT AVBL
TRINIDAD       FAIR      31  -1  25 W15       29.85R WCI  20
$$

COZ042>045-048>051-090-091-250800-
...NORTHEAST COLORADO...

CITY           SKY/WX    TMP DP  RH WIND       PRES   REMARKS
GREELEY ARPT   FAIR      23  11  60 S8        29.86S WCI  14
AKRON          FAIR      20  10  65 W10       29.84S WCI   9
BURLINGTON     FAIR      15   9  76 SW7       29.91R WCI   5
WRAY           CLOUDY    28  18  64 SW6       29.88F WCI  22
YUMA           NOT AVBL
STERLING       CLOUDY    28  12  50 SW9       29.85R WCI  20
HOLYOKE        FAIR      32  12  43 NW10G18   29.85S WCI  24
FORT MORGAN    FAIR      18   8  63 W3        29.88R
$$

COZ086-089-092>099-250800-
...SOUTHEAST COLORADO...

CITY           SKY/WX    TMP DP  RH WIND       PRES   REMARKS
PUEBLO         FAIR      24   6  46 E8        29.89R WCI  15
LA JUNTA       FAIR      20   6  55 NE7       29.90S WCI  11
LAMAR          FAIR      18   5  57 NE6       29.91R WCI  10
SPRINGFIELD      N/A     13   6  74 N5        29.86R WCI   5
$$



USA.gov is the U.S. government's official web portal to all federal, state and local government web resources and services.